sat.trackr.live / text

‹ back to catalog

STARLINK-30345

NORAD 57701 · 2023-129D

PAYLOAD ACTIVE UNKNOWN

§ Identity

Operator
Country
US
Launch date
2023-08-27
Launch site
AFETR
Launch vehicle
Mass (kg)
RCS (m²)

Purposes: comms

External: N2YO · Heavens-Above · Gunter

§ Orbital elements

Epoch: 2026-09-18T23:19:45.024960Z

Period
94.27 min
Inclination
43.0034°
Eccentricity
0.0001503
Mean motion
15.27580263 rev/d
Perigee alt
482.0 km
Apogee alt
484.1 km
Semi-major
6,861.2 km
B*
6.8593e-5
RAAN
106.2635°
Arg perigee
262.4816°
Mean anomaly
97.5865°
Rev number
17,010

§ Raw data

STARLINK-303451 57701U 23129D   26261.97204890  .00001626  00000+0  68593-4 0  99922 57701  43.0034 106.2635 0001503 262.4816  97.5865 15.27580263170105

JSON: /api/v1/satellites/57701 · /tle

For live sub-satellite position, see the globe view (requires WebGL).

§ Visibility from observer

Set your observer location to see the next 7 days of passes ≥ 10°. The values pass through the URL so the page stays shareable.

No JS? Fill the form by hand. The geolocation button needs JavaScript.